Regional Weather Roundup
Issued by NWS

Home | Current Version | Previous Version | Graphics & Text | Print | Product List | Glossary Off
Versions: 1 2 3 4 5 6 7 8 9 10 11 12 13 14 15 16 17 18 19 20 21 22 23 24 25 26 27 28 29 30 31 32 33 34 35 36 37 38 39 40 41 42 43 44 45 46 47 48 49 50

000
ASUS43 KMKX 230800
RWRWI

WISCONSIN REGIONAL WEATHER ROUNDUP
NATIONAL WEATHER SERVICE MILWAUKEE/SULLIVAN WI
200 AM CST THU FEB 23 2017

NOTE: "FAIR" INDICATES FEW OR NO CLOUDS BELOW 12,000 FEET WITH NO
SIGNIFICANT WEATHER AND/OR OBSTRUCTIONS TO VISIBILITY.

WIZ001-002-006>008-014>016-023>028-230900-
NORTHWEST WISCONSIN

CITY           SKY/WX    TMP DP  RH WIND       PRES   REMARKS
SUPERIOR ARPT  CLOUDY    33  29  85 N10G16    29.84R WCI  25
ASHLAND        CLOUDY    32  32 100 N6        29.81R WCI  26
HAYWARD        CLOUDY    34  31  88 N8        29.80R WCI  27
SIREN          CLOUDY    34  32  93 N8        29.83R WCI  27
CUMBERLAND     CLOUDY    32  32 100 N14       29.79R WCI  22
RICE LAKE      CLOUDY    35  32  90 NW6       29.81R WCI  30
CHETEK         CLOUDY    36  33  88 N7G22     29.78R WCI  30
LADYSMITH      CLOUDY    36  33  88 N9G18     29.75R WCI  29
EAU CLAIRE     CLOUDY    39  33  79 NW13      29.76R WCI  31
MENOMONIE      CLOUDY    39  34  81 NW10G20   29.78R WCI  32
NEW RICHMOND   CLOUDY    34  33  96 N9        29.82R WCI  27
OSCEOLA        CLOUDY    35  35 100 N10       29.84S WCI  28
$$

WIZ003>005-009-010-017-018-230900-
NORTH CENTRAL WISCONSIN

CITY           SKY/WX    TMP DP  RH WIND       PRES   REMARKS
MANITOWISH WTR FLURRIES  32  32 100 N9G18     29.70R WCI  24
ARBOR VITAE    LGT SNOW  34  32  94 N10         N/A  WCI  26
WOODRUFF       LGT SNOW  34  32  94 N10         N/A  WCI  26
RHINELANDER    CLOUDY    34  33  96 N9        29.67R WCI  27
EAGLE RIVER    FLURRIES  32  32  99 N8G16     29.67R WCI  25
LAND O LAKES   CLOUDY    32  31  96 N8        29.70R WCI  25
PHILLIPS       CLOUDY    32  32  99 NW7       29.72R WCI  26
TOMAHAWK       CLOUDY    33  32  96 N8        29.68R WCI  27
MEDFORD        CLOUDY    35  33  92 N10G18    29.67R WCI  28
MERRILL        NOT AVBL
$$

WIZ029-030-035-036-043>047-230900-
CENTRAL WISCONSIN

CITY           SKY/WX    TMP DP  RH WIND       PRES   REMARKS
WAUSAU         CLOUDY    39  38  96 NW13      29.64R WCI  31
MOSINEE        CLOUDY    39  39 100 NW14      29.66R WCI  31
MARSHFIELD     CLOUDY    39  36  89 NW17      29.67R WCI  30
STEVENS POINT  MOCLDY    40  39  95 W8        29.63R WCI  35
WAUPACA        PTCLDY    45  39  79 W8        29.62R
WAUTOMA        CLOUDY    46  42  86 W24G31    29.65R
WISC RAPIDS    MOCLDY    44  41  89 NW9       29.67R
CAMP DOUGLAS   CLOUDY    46  41  81 W14       29.67R
$$

WIZ011>013-019>022-031-037>040-048>050-230900-
NORTHEAST WISCONSIN

CITY           SKY/WX    TMP DP  RH WIND       PRES   REMARKS
ANTIGO         CLOUDY    37  35  93 N10       29.61R WCI  29
SHAWANO        MOCLDY    37  35  92 N6        29.61R WCI  32
OCONTO         PTCLDY    38  37  95 N5        29.59R WCI  34
STURGEON BAY   MOCLDY    37  36  96 N8        29.59R FOG     WCI  31
GREEN BAY      CLEAR     38  38 100 CALM      29.60R
MANITOWOC      NOT AVBL
APPLETON       PTCLDY    34  34 100 W8        29.59R WCI  27
CLINTONVILLE   CLOUDY    34  32  93 CALM      29.61R
OSHKOSH        CLEAR     46  38  73 W8        29.61R
$$

WIZ032>034-041-042-053>061-230900-
SOUTHWEST WISCONSIN

CITY           SKY/WX    TMP DP  RH WIND       PRES   REMARKS
LA CROSSE      MOCLDY    42  37  82 NW14      29.74R
SPARTA         CLOUDY    45  40  81 W15       29.72R
VIROQUA        PTCLDY    43  40  90 NW10      29.71R
BOSCOBEL       CLOUDY    50  42  74 W9        29.72R
PRAIRIE DU CHI CLOUDY    46  39  77 NW8       29.73S
PLATTEVILLE    MOCLDY    46  46  99 W10       29.71R
$$

WIZ056-057-062-063-064-067-068-230900-
SOUTH CENTRAL WISCONSIN

CITY           SKY/WX    TMP DP  RH WIND       PRES   REMARKS
REEDSBURG      CLOUDY    46  43  89 W8        29.67S
BARABOO/DELLS  CLEAR     46  41  81 W10       29.67R
LONE ROCK      NOT AVBL
MINERAL POINT  CLEAR     45  45 100 NW7       29.69R
MADISON        CLEAR     48  42  80 W9        29.66R
MIDDLETON      CLEAR     49  43  80 W13       29.67R
WATERTOWN      CLEAR     48  44  85 W5        29.64R
MONROE         CLEAR     46  43  87 W12       29.67R
JANESVILLE     CLEAR     46  43  87 W5        29.66R
$$

WIZ051-052-058>065-066-070>072-230900-
SOUTHEAST WISCONSIN

CITY           SKY/WX    TMP DP  RH WIND       PRES   REMARKS
MILWAUKEE      CLEAR     55  44  66 W12       29.62R
WAUKESHA       CLEAR     48  41  76 W9        29.64R
MILWAUKEE/TIMM CLEAR     50  41  71 W9        29.63R
RACINE         CLEAR     53  44  71 W10       29.63R
KENOSHA        CLEAR     51  44  77 W14       29.63R
FOND DU LAC    CLEAR     46  37  71 W9        29.62R
SHEBOYGAN      CLEAR     47  38  71 W9        29.59R
WEST BEND      CLEAR     50  41  71 W8        29.61R
JUNEAU         CLEAR     44  40  86 W9        29.64R
$$

LSZ147-162-230900-
LAKE SUPERIOR

STATION/POSITION TIME  TEMP    WIND        PRES    WAVE
                       AIR SEA DIR/SP/G            HT/PER
                 (UTC) (F)     (DEG/KT/KT) (MB)    (FT/S)
DEVILS ISLAND    0700   32      30/  7/  7 1009.4R
PORT WING        0740   33     330/ 11/ 13 1010.2R
SAXON HARBOR     0730   33     350/  9/ 10 1008.8R
$$

LMZ867-665-643>646-230900-
LAKE MICHIGAN

STATION/POSITION TIME  TEMP    WIND        PRES    WAVE
                       AIR SEA DIR/SP/G            HT/PER
                 (UTC) (F)     (DEG/KT/KT) (MB)    (FT/S)
CHAMBERS ISLAND  0740   35     330/  7/ 10 1002.0R
NORTHPORT PIER   0740   35     310/ 12/ 14 1002.0R
SISTER BAY       0705   37     340/ 16/ 21   N/A
KEWAUNEE LAKESHO 0730   39     360/  6/ 11 1001.4R
SHEBOYGAN LAKESH 0700   53     270/ 12/ 15 1000.9R
PORT WASHINGTON  0740   53     280/  7/ 11 1003.4R
MILWAUKEE LAKESH 0730   55     290/ 12/ 15   N/A
KENOSHA   LAKESH 0700   55     270/ 12/ 17 1002.7
$$

TC  - TEMPERATURE IN CELSIUS
VSB - VISIBILITY IN STATUTE MILES
WCI - WIND CHILL INDEX
HX  - HEAT INDEX





USA.gov is the U.S. government's official web portal to all federal, state and local government web resources and services.